[Iaude] MPEC E164: 2024 EM3 [a=1.80,e=0.48,i=4.0,H=26.4]

mpec at cfa.harvard.edu mpec at cfa.harvard.edu
Wed Mar 13 08:46:20 EDT 2024


M.P.E.C. 2024-E164                               Issued 2024 March 13, 12:44 UT

     The Minor Planet Electronic Circulars contain information on unusual
         minor planets, routine data on comets and natural satellites,
         and occasional editorial announcements.  They are published
    on behalf of Division F of the International Astronomical Union by the
          Minor Planet Center, Smithsonian Astrophysical Observatory,
                          Cambridge, MA 02138, U.S.A.
			  
             Prepared using the Tamkin Foundation Computer Network

                              MPC at CFA.HARVARD.EDU
            URL https://www.minorplanetcenter.net/    ISSN 1523-6714

                                    2024 EM3                                    


Observations:
     K24E03M*1C2024 03 12.38125913 43 40.292+36 47 42.07         20.97GVEE164G96
     K24E03M 1C2024 03 12.38765113 43 39.652+36 46 11.14         20.84GVEE164G96
     K24E03M 1C2024 03 12.39575013 43 38.831+36 44 16.91         20.93GVEE164G96
     K24E03M 1C2024 03 12.40445813 43 37.992+36 42 14.33         20.93GVEE164G96
     K24E03M  C2024 03 12.43209713 43 34.293+36 35 36.82         20.7 GVEE164H01
     K24E03M  C2024 03 12.43574513 43 33.944+36 34 45.37         21.0 GVEE164H01
     K24E03M  C2024 03 12.44600613 43 32.988+36 32 19.44         21.0 GVEE164H01
     K24E03M  C2024 03 12.45434213 43 32.223+36 30 21.07         21.5 GVEE164H01
     K24E03M KC2024 03 12.47120913 43 31.490+36 26 29.76         21.17GVEE164I52
     K24E03M KC2024 03 12.47270213 43 31.372+36 26 08.45         20.84GVEE164I52
     K24E03M KC2024 03 12.47418813 43 31.235+36 25 47.53         21.30GVEE164I52
     K24E03M KC2024 03 12.47566513 43 31.098+36 25 26.65         20.66GVEE164I52
     K24E03M KC2024 03 12.92424713 43 46.45 +34 45 31.2          21.4 GVEE164L01
     K24E03M IC2024 03 12.92721613 43 46.30 +34 44 55.1          21.2 GVEE164L01
     K24E03M pC2024 03 12.93019513 43 46.16 +34 44 17.8          21.5 GVEE164L01
     K24E03M KB2024 03 12.98819413 43 45.23 +34 32 27.7          20.4 GXEE164958
     K24E03M KB2024 03 12.99527513 43 44.73 +34 31 01.3          20.3 GXEE164958
     K24E03M KB2024 03 13.00230413 43 44.26 +34 29 37.6          20.5 GXEE164958
     K24E03M KB2024 03 13.03686413 43 41.57 +34 22 39.3          20.8 GXEE164I93
     K24E03M KB2024 03 13.04571913 43 40.83 +34 20 52.7          20.8 GXEE164I93
     K24E03M KB2024 03 13.05456813 43 40.22 +34 19 05.1          20.5 GXEE164I93

Observer details:
958 Observatoire de Dax.  Observer P. Dupouy.  0.50-m f/4.5 Reflector + CMO.
G96 Mt. Lemmon Survey.  Observer D. Rankin.  Measurers T. Beuden, V. F.
    Carvajal, D. Fay, J. B. Fazekas, D. C. Fuls, A. R. Gibbs, A. D. Grauer, H.
    Groeller, J. K. Hogan, R. A. Kowalski, S. M. Larson, G. J. Leonard, D.
    Rankin, R. L. Seaman, F. C. Shelly, K. W. Wierzchos.  1.5-m reflector +
    10K CCD.
H01 Magdalena Ridge Observatory, Socorro.  Observers W. H. Ryan, E. V. Ryan.
    Measurer W. H. Ryan.  2.4-m f/8.9 Ritchey-Chretien + CCD.
I52 Steward Observatory, Mt. Lemmon Station.  Observer H. Groeller.  Measurers
    T. Beuden, V. F. Carvajal, D. Fay, J. B. Fazekas, D. C. Fuls, A. R. Gibbs,
    A. D. Grauer, H. Groeller, J. K. Hogan, R. A. Kowalski, S. M. Larson, G.
    J. Leonard, D. Rankin, R. L. Seaman, F. C. Shelly, K. W. Wierzchos.  1.0-m
    prime focus + CCD.
I93 St Pardon de Conques.  Observer F. Losse.  0.40-m f/3.7 reflector + CCD.
L01 Visnjan Observatory, Tican.  Observers K. Korlevic, I. Lyon.  Measurer K.
    Korlevic.  1.0-m f/2.9 reflector + CCD.

Orbital elements:
2024 EM3                                                 Earth MOID = 0.0158 AU
Epoch 2024 Mar. 31.0 TT = JDT 2460400.5                 Veres                   
M  21.46549              (2000.0)            P               Q                  
n   0.40688807     Peri.  338.85914     -0.63856864     -0.76879404             
a   1.8036520      Node   150.79337     +0.71579999     -0.60979254             
e   0.4827809      Incl.    4.04677     +0.28259593     -0.19263643             
P   2.42           H   26.49          G   0.15           U   8                  
Residuals in seconds of arc
240312 G96  0.0   0.6+    240312 H01  0.1+  0.3+    240312 L01  0.2+  0.8-
240312 G96  0.0   0.3-    240312 I52  0.1-  0.1-    240312 958  0.5+  0.4+
240312 G96  0.1-  0.4-    240312 I52  0.1+  0.3-    240312 958  0.0   0.8-
240312 G96  0.3+  0.2-    240312 I52  0.0   0.1-    240313 958  0.0   0.1+
240312 H01  0.0   0.2+    240312 I52  0.0   0.0     240313 I93  0.4+  0.4+
240312 H01  0.0   0.5+    240312 L01  0.3-  0.4+    240313 I93  0.5-  0.6+
240312 H01  0.1+  0.2+    240312 L01  0.1-  0.3+    240313 I93  0.4+  0.2-

Ephemeris:
2024 EM3                 a,e,i = 1.80, 0.48, 4                   q = 0.9329
Date    TT    R. A. (2000) Decl.     Delta      r    Elong.  Phase     V
2024 02 12    01 37 45.5 +01 22 05   0.1207  0.9346    61.1   112.5    26.1
...
2024 02 27    01 46 12.1 +18 08 29   0.04557 0.9639    53.9   123.9    24.9
...
2024 03 06    02 07 02.7 +83 48 38   0.01942 0.9927    91.3    87.6    21.0
...
2024 03 12    13 43 37.0 +38 21 49   0.03682 1.0194   133.5    45.0    21.1
2024 03 13    13 43 37.1 +34 31 06   0.04133 1.0242   136.2    42.2    21.3
2024 03 14    13 43 32.3 +31 25 33   0.04600 1.0291   138.4    39.9    21.4
...
2024 03 20    13 42 09.6 +21 01 48   0.07592 1.0604   147.2    30.6    22.3
...
2024 03 28    13 39 08.6 +15 12 02   0.1188  1.1066   154.6    22.8    23.2
...
2024 04 12    13 32 52.4 +09 58 29   0.2097  1.2028   161.2    15.6    24.4

M. P. C. Staff               (C) Copyright 2024 MPC           M.P.E.C. 2024-E164





More information about the Iaude mailing list